Location: Byszew
(52.1813°N, 19.2693°E)
Time: 01:07:16
(UTC+00:00)

Cosmos 2322 Rocket - Pass Details

Date: 25 June 2021
Orbit: 833 x 850 km, 71.0° (Epoch: 29 July)

Event Time Altitude Azimuth Distance (km) Brightness Sun altitude
Rises 01:05:30 0° 328° (NNW) 3,425 5.7 -8.5°
Reaches altitude 10° 01:08:33 10° 343° (NNW) 2,485 5.3 -8.2°
Maximum altitude 01:12:55 22° 34° (NE) 1,773 5.1 -7.9°
Drops below altitude 10° 01:17:17 10° 84° (E) 2,469 5.2 -7.5°
Sets 01:20:17 0° 100° (E) 3,398 5.7 -7.2°
